FW0858 Bay Shore NY US current weather conditions

sailwx.info

Wind from 210 at 4 knots gusting 8

Air temperature 7.8° C
Dewpoint 6.9° C

Last reported at 2019-Dec-09 13:02 UTC.
Time now 2019-Dec-09 13:24 UTC

Location: N 40°43' W 073°14'.
View on Google Maps.

See reports from other nearby stations

  
Tides and Currents Weather Stations Pressure Air Temp Water Temp Dewpoint Dewpoint Depression Visibility Wind Speed Wind Dir Waves Ship Positions
date/time (UTC)wind fromknots sea level pressurealtimeterstation pressurevisibilityair tempwater tempwave heightnotes
2019-Dec-09 13:02 210 4 gusting 8 7.8
2019-Dec-09 12:57 188 5 gusting 8 8.3
2019-Dec-09 12:52 203 6 gusting 9 8.3
2019-Dec-09 12:47 170 6 gusting 10 8.9
2019-Dec-09 12:42 142 7 gusting 10 9.4
2019-Dec-09 12:40 140 6 gusting 10 9.4
2019-Dec-09 12:32 141 3 gusting 6 9.4
2019-Dec-09 12:27 141 2 gusting 5 9.4
2019-Dec-09 12:22 115 2 gusting 4 8.9
2019-Dec-09 12:17 103 1 gusting 4 8.9
2019-Dec-09 12:12 136 1 gusting 3 8.3
2019-Dec-09 12:07 077 2 gusting 3 7.8
2019-Dec-09 12:02 061 2 gusting 4 7.2
2019-Dec-09 11:57 051 2 gusting 4 7.2
2019-Dec-09 11:52 063 2 gusting 3 7.2
2019-Dec-09 11:47 049 2 gusting 3 7.2
2019-Dec-09 11:42 048 2 gusting 3 7.2
2019-Dec-09 11:37 049 2 gusting 4 6.7
2019-Dec-09 11:32 049 3 gusting 4 6.7
2019-Dec-09 11:27 045 2 gusting 4 6.7
2019-Dec-09 11:22 037 2 gusting 3 6.7
2019-Dec-09 11:17 036 2 gusting 3 6.7
2019-Dec-09 11:12 033 2 gusting 3 6.7
2019-Dec-09 11:07 030 3 gusting 4 6.7
2019-Dec-09 11:02 037 3 gusting 4 6.7
2019-Dec-09 10:57 034 2 gusting 4 6.7
2019-Dec-09 10:52 037 2 gusting 3 7.2
2019-Dec-09 10:47 032 2 gusting 3 7.2
2019-Dec-09 10:42 034 1 gusting 3 7.2
2019-Dec-09 10:37 036 2 gusting 3 7.2
2019-Dec-09 10:32 035 2 gusting 3 7.2
2019-Dec-09 10:27 035 2 gusting 3 7.2
2019-Dec-09 10:22 033 2 gusting 3 7.2
2019-Dec-09 10:17 037 1 gusting 3 7.2
2019-Dec-09 10:12 037 0 gusting 2 7.2
2019-Dec-09 10:07 037 1 gusting 2 7.2
2019-Dec-09 10:02 039 1 gusting 2 7.2
2019-Dec-09 09:57 042 1 gusting 2 7.2
2019-Dec-09 09:52 051 0 gusting 1 7.2
2019-Dec-09 09:47 056 7.2
2019-Dec-09 09:42 056 0 gusting 1 7.2
2019-Dec-09 09:37 056 0 gusting 1 7.2
2019-Dec-09 09:32 056 7.2
2019-Dec-09 09:27 057 7.2
2019-Dec-09 09:22 057 6.7
2019-Dec-09 09:17 072 6.7
2019-Dec-09 09:12 072 7.2
2019-Dec-09 09:07 072 7.2
2019-Dec-09 09:02 072 7.2
2019-Dec-09 08:57 296 6.7
2019-Dec-09 08:52 335 6.7
2019-Dec-09 08:47 336 7.2
2019-Dec-09 08:42 335 6.7
2019-Dec-09 08:37 337 6.7
2019-Dec-09 08:32 337 6.7
2019-Dec-09 08:29 245 6.7
2019-Dec-09 08:22 245 6.7
2019-Dec-09 08:17 245 6.7
2019-Dec-09 08:12 245 6.7
2019-Dec-09 08:07 245 7.2
2019-Dec-09 08:02 245 7.2
2019-Dec-09 07:57 245 7.2
2019-Dec-09 07:52 245 7.2
2019-Dec-09 07:47 245 7.8
2019-Dec-09 07:42 245 7.8
2019-Dec-09 07:37 245 7.8
2019-Dec-09 07:32 245 0 gusting 1 7.8
2019-Dec-09 07:27 239 0 gusting 1 7.8
2019-Dec-09 07:22 244 0 gusting 2 7.8
2019-Dec-09 07:17 237 0 gusting 2 7.8
2019-Dec-09 07:12 251 1 gusting 4 7.8
2019-Dec-09 07:07 231 2 gusting 5 7.8
2019-Dec-09 07:02 226 3 gusting 6 7.8
2019-Dec-09 06:57 234 4 gusting 6 7.8
2019-Dec-09 06:52 224 3 gusting 6 8.3
2019-Dec-09 06:47 253 2 gusting 6 7.8
2019-Dec-09 06:42 288 3 gusting 11 8.3
2019-Dec-09 06:37 199 2 gusting 11 8.3
2019-Dec-09 06:32 223 1 gusting 5 7.8
2019-Dec-09 06:27 227 1 gusting 2 7.8
2019-Dec-09 06:22 223 1 gusting 3 7.8
2019-Dec-09 06:17 251 1 gusting 3 7.8
2019-Dec-09 06:12 261 0 gusting 3 7.2
2019-Dec-09 06:07 243 7.2
2019-Dec-09 06:02 284 6.7
2019-Dec-09 05:57 212 6.7
2019-Dec-09 05:52 212 6.1
2019-Dec-09 05:47 211 6.1
2019-Dec-09 05:42 210 5.6
2019-Dec-09 05:37 211 5.6
2019-Dec-09 05:32 211 5.0
2019-Dec-09 05:27 211 5.6
2019-Dec-09 05:22 211 5.6
2019-Dec-09 05:17 211 5.6
2019-Dec-09 05:12 210 5.0
2019-Dec-09 05:07 210 5.0
2019-Dec-09 05:02 210 5.0
2019-Dec-09 04:57 210 4.4
2019-Dec-09 04:52 211 4.4
2019-Dec-09 04:47 211 3.9
2019-Dec-09 04:42 211 3.9
2019-Dec-09 04:37 211 3.9
2019-Dec-09 04:32 211 4.4
2019-Dec-09 04:27 211 4.4
2019-Dec-09 04:22 210 4.4
2019-Dec-09 04:17 210 0 gusting 0 4.4
2019-Dec-09 04:12 210 0 gusting 1 4.4
2019-Dec-09 04:07 210 0 gusting 1 4.4
2019-Dec-09 04:02 144 0 gusting 1 4.4
2019-Dec-09 03:57 144 4.4
2019-Dec-09 03:52 219 4.4
2019-Dec-09 03:47 223 0 gusting 1 4.4
2019-Dec-09 03:42 155 0 gusting 1 4.4
2019-Dec-09 03:37 128 4.4
2019-Dec-09 03:32 146 4.4
2019-Dec-09 03:27 238 3.9
2019-Dec-09 03:22 248 3.9
2019-Dec-09 03:17 248 3.9
2019-Dec-09 03:12 251 3.9
2019-Dec-09 03:07 252 4.4
2019-Dec-09 03:02 252 5.0
2019-Dec-09 02:57 251 5.0
2019-Dec-09 02:52 251 5.6
2019-Dec-09 02:47 238 0 gusting 1 5.6
2019-Dec-09 02:42 211 5.6
2019-Dec-09 02:37 244 5.6
2019-Dec-09 02:34 257 0 gusting 1 5.6
2019-Dec-09 02:27 237 0 gusting 2 5.6
2019-Dec-09 02:22 237 1 gusting 2 5.6
2019-Dec-09 02:17 234 1 gusting 2 5.6
2019-Dec-09 02:12 233 1 gusting 2 5.6
2019-Dec-09 02:07 236 1 gusting 3 5.6
2019-Dec-09 02:02 236 1 gusting 3 5.6
2019-Dec-09 01:57 236 1 gusting 4 5.6
2019-Dec-09 01:52 240 2 gusting 4 5.6
2019-Dec-09 01:47 250 2 gusting 4 5.0
2019-Dec-09 01:42 259 2 gusting 3 5.0
2019-Dec-09 01:37 245 2 gusting 5 5.6
2019-Dec-09 01:32 240 3 gusting 6 5.6
2019-Dec-09 01:27 231 3 gusting 6 5.6
2019-Dec-09 01:22 250 3 gusting 7 5.6
2019-Dec-09 01:17 222 4 gusting 7 5.6
2019-Dec-09 01:12 229 5 gusting 9 5.6
2019-Dec-09 01:07 229 6 gusting 10 5.6
2019-Dec-09 01:02 243 6 gusting 10 5.6
2019-Dec-09 00:57 224 5 gusting 8 5.6
2019-Dec-09 00:52 233 4 gusting 8 5.0
2019-Dec-09 00:47 207 4 gusting 7 5.0
2019-Dec-09 00:42 233 4 gusting 7 5.0
2019-Dec-09 00:37 226 5 gusting 8 5.0
2019-Dec-09 00:32 240 5 gusting 9 5.0
2019-Dec-09 00:27 212 6 gusting 9 5.0
2019-Dec-09 00:22 231 6 gusting 9 5.0
2019-Dec-09 00:17 234 6 gusting 10 5.0
2019-Dec-09 00:12 255 6 gusting 10 5.0
2019-Dec-09 00:07 226 6 gusting 9 5.0
2019-Dec-09 00:02 231 6 gusting 10 5.0
2019-Dec-08 23:57 236 6 gusting 10 5.0
2019-Dec-08 23:52 232 5 gusting 9 4.4
2019-Dec-08 23:47 224 5 gusting 8 4.4
2019-Dec-08 23:42 211 6 gusting 10 4.4
2019-Dec-08 23:37 231 6 gusting 10 4.4
2019-Dec-08 23:32 211 6 gusting 8 4.4
2019-Dec-08 23:27 218 6 gusting 8 4.4
2019-Dec-08 23:22 213 6 gusting 9 4.4
2019-Dec-08 23:17 238 6 gusting 9 4.4
2019-Dec-08 23:12 219 5 gusting 9 3.9
2019-Dec-08 23:07 236 5 gusting 7 3.9
2019-Dec-08 23:02 215 6 gusting 9 3.9
2019-Dec-08 22:57 233 6 gusting 10 3.9
2019-Dec-08 22:52 234 6 gusting 10 3.9
2019-Dec-08 22:47 226 6 gusting 9 3.9
2019-Dec-08 22:42 210 6 gusting 9 3.9
2019-Dec-08 22:37 225 6 gusting 9 3.9
2019-Dec-08 22:32 200 6 gusting 10 3.9
2019-Dec-08 22:26 221 6 gusting 10 3.9
2019-Dec-08 22:22 190 6 gusting 10 3.9
2019-Dec-08 22:17 227 5 gusting 9 3.9
2019-Dec-08 22:11 219 5 gusting 10 3.9
2019-Dec-08 22:07 195 5 gusting 10 3.9
2019-Dec-08 22:02 221 6 gusting 9 3.9
2019-Dec-08 21:57 221 6 gusting 9 3.9
2019-Dec-08 21:52 248 6 gusting 9 3.9
2019-Dec-08 21:46 237 6 gusting 9 3.9
2019-Dec-08 21:42 210 6 gusting 9 3.9
2019-Dec-08 21:36 227 6 gusting 9 3.3
2019-Dec-08 21:31 245 6 gusting 11 3.3
2019-Dec-08 21:26 236 6 gusting 11 3.3
2019-Dec-08 21:21 230 6 gusting 9 3.3
2019-Dec-08 21:17 203 5 gusting 8 3.3
2019-Dec-08 21:14 224 5 gusting 8 3.3
2019-Dec-08 21:06 200 4 gusting 7 3.3
2019-Dec-08 21:01 246 5 gusting 8 3.3
2019-Dec-08 20:56 211 4 gusting 8 3.3
2019-Dec-08 20:51 224 4 gusting 8 3.3
2019-Dec-08 20:46 224 5 gusting 8 3.3
2019-Dec-08 20:41 195 6 gusting 7 3.3
2019-Dec-08 20:36 205 5 gusting 7 3.9
2019-Dec-08 20:31 204 5 gusting 7 3.9
2019-Dec-08 20:29 213 5 gusting 7 3.9
2019-Dec-08 20:21 208 4 gusting 6 3.9
2019-Dec-08 20:16 231 4 gusting 7 3.9
2019-Dec-08 20:11 227 4 gusting 7 3.3
2019-Dec-08 20:06 197 4 gusting 8 3.3
2019-Dec-08 20:01 229 5 gusting 8 3.3
2019-Dec-08 19:56 232 5 gusting 9 3.3
2019-Dec-08 19:51 231 5 gusting 9 3.3
2019-Dec-08 19:46 226 4 gusting 6 3.3
2019-Dec-08 19:42 217 4 gusting 8 3.3
2019-Dec-08 19:36 212 5 gusting 8 3.3
2019-Dec-08 19:31 219 6 gusting 9 3.3
2019-Dec-08 19:26 210 6 gusting 9 3.3
2019-Dec-08 19:21 229 5 gusting 9 3.3
2019-Dec-08 19:16 218 4 gusting 7 3.3
2019-Dec-08 19:11 233 5 gusting 7 3.3
2019-Dec-08 19:06 192 6 gusting 8 3.3
2019-Dec-08 19:01 217 6 gusting 8 3.3
2019-Dec-08 18:56 212 6 gusting 11 3.3
2019-Dec-08 18:51 219 5 gusting 11 3.3
2019-Dec-08 18:46 210 6 gusting 9 3.3
2019-Dec-08 18:41 232 6 gusting 7 2.8
2019-Dec-08 18:36 208 6 gusting 8 2.8
2019-Dec-08 18:31 210 5 gusting 8 2.8
2019-Dec-08 18:26 217 5 gusting 7 2.8
2019-Dec-08 18:21 209 5 gusting 8 2.8
2019-Dec-08 18:16 200 4 gusting 8 2.8
2019-Dec-08 18:11 205 4 gusting 6 2.8
2019-Dec-08 18:07 195 5 gusting 6 2.8
2019-Dec-08 18:01 217 4 gusting 6 2.8
2019-Dec-08 17:56 206 4 gusting 6 2.8
2019-Dec-08 17:52 210 4 gusting 6 2.8
2019-Dec-08 17:46 205 4 gusting 6 2.2
2019-Dec-08 17:41 159 4 gusting 6 2.2
2019-Dec-08 17:36 195 5 gusting 6 2.2
2019-Dec-08 17:31 183 5 gusting 6 1.7
2019-Dec-08 17:26 176 4 gusting 6 1.7
2019-Dec-08 17:21 154 4 gusting 6 1.7
2019-Dec-08 17:16 126 4 gusting 6 1.7
2019-Dec-08 17:11 107 3 gusting 6 1.1
2019-Dec-08 17:06 127 3 gusting 6 1.1
2019-Dec-08 17:01 198 4 gusting 6 1.1
2019-Dec-08 16:56 142 3 gusting 6 1.1
2019-Dec-08 16:51 126 3 gusting 5 1.1
2019-Dec-08 16:46 097 3 gusting 6 1.1
2019-Dec-08 16:41 136 3 gusting 6 0.6
2019-Dec-08 16:36 128 3 gusting 6 0.6
2019-Dec-08 16:32 115 4 gusting 6 0.6
2019-Dec-08 16:26 118 3 gusting 6 0.6
2019-Dec-08 16:21 145 3 gusting 5 0.6
2019-Dec-08 16:16 121 3 gusting 5 0.6
2019-Dec-08 16:11 161 3 gusting 5 0.6
2019-Dec-08 16:06 162 3 gusting 5 -0.0
2019-Dec-08 16:01 134 3 gusting 5 0.6
2019-Dec-08 15:56 194 3 gusting 5 0.6
2019-Dec-08 15:51 136 3 gusting 5 -0.0
2019-Dec-08 15:46 118 2 gusting 5 -0.0
2019-Dec-08 15:41 136 2 gusting 5 -0.0
2019-Dec-08 15:39 127 3 gusting 6 -0.0
2019-Dec-08 15:31 124 3 gusting 6 -0.0
2019-Dec-08 15:26 143 3 gusting 5 -0.0
2019-Dec-08 15:21 111 3 gusting 5 -0.0
2019-Dec-08 15:16 134 3 gusting 6 -0.0
2019-Dec-08 15:11 150 3 gusting 6 -0.0
2019-Dec-08 15:06 134 3 gusting 6 -0.0
2019-Dec-08 15:01 120 3 gusting 6 -0.6
2019-Dec-08 14:56 117 3 gusting 5 -0.6
2019-Dec-08 14:51 110 3 gusting 5 -0.6
2019-Dec-08 14:46 137 3 gusting 5 -0.6
2019-Dec-08 14:41 163 2 gusting 4 -0.6
2019-Dec-08 14:36 134 2 gusting 4 -0.6
2019-Dec-08 14:31 118 2 gusting 4 -0.6
2019-Dec-08 14:26 136 1 gusting 3 -0.6
2019-Dec-08 14:21 115 2 gusting 5 -0.6
2019-Dec-08 14:16 130 1 gusting 5 -0.6
2019-Dec-08 14:11 139 1 gusting 3 -1.1
2019-Dec-08 14:06 134 1 gusting 3 -1.1
2019-Dec-08 14:01 088 1 gusting 2 -1.1
2019-Dec-08 13:56 086 0 gusting 2 -1.7
2019-Dec-08 13:51 110 -1.7
2019-Dec-08 13:46 080 -1.7
2019-Dec-08 13:41 043 -2.2
2019-Dec-08 13:36 042 -2.8
2019-Dec-08 13:31 042 -2.8
2019-Dec-08 13:26 042 0 gusting 1 -3.3
2019-Dec-08 13:21 039 0 gusting 1 -3.3
2019-Dec-08 13:16 038 0 gusting 1 -3.9
2019-Dec-08 13:11 038 0 gusting 1 -3.9
2019-Dec-08 13:06 038 0 gusting 1 -3.9
2019-Dec-08 13:01 041 -4.4
2019-Dec-08 12:56 041 0 gusting 2 -4.4
2019-Dec-08 12:51 041 0 gusting 2 -5.0
2019-Dec-08 12:46 037 0 gusting 1 -5.0
2019-Dec-08 12:41 035 0 gusting 1 -5.6
2019-Dec-08 12:36 035 -6.1
2019-Dec-08 12:31 330 -6.1
2019-Dec-08 12:26 330 -6.1
2019-Dec-08 12:21 330 -6.7
2019-Dec-08 12:16 330 -6.7
2019-Dec-08 12:11 037 -6.1
2019-Dec-08 12:06 037 -6.1
2019-Dec-08 12:01 037 -6.1
2019-Dec-08 11:56 037 -6.1
2019-Dec-08 11:51 037 -6.1
2019-Dec-08 11:46 037 0 gusting 1 -6.1
2019-Dec-08 11:41 037 0 gusting 1 -6.1
2019-Dec-08 11:36 037 0 gusting 1 -6.1
2019-Dec-08 11:31 031 -6.1
2019-Dec-08 11:26 338 -6.7
2019-Dec-08 11:21 338 -6.7
2019-Dec-08 11:16 335 -6.7
2019-Dec-08 11:11 334 0 gusting 1 -6.1
2019-Dec-08 11:06 041 -6.1
2019-Dec-08 11:01 041 0 gusting 2 -6.1
2019-Dec-08 10:56 044 0 gusting 2 -6.1
2019-Dec-08 10:51 023 -6.1
2019-Dec-08 10:46 342 -6.1
2019-Dec-08 10:41 342 -6.1
2019-Dec-08 10:36 006 -6.1
2019-Dec-08 10:31 345 -6.1
2019-Dec-08 10:26 323 -6.1
2019-Dec-08 10:21 323 -6.1
2019-Dec-08 10:16 323 -6.1
2019-Dec-08 10:11 323 -6.1
2019-Dec-08 10:06 323 -6.1
2019-Dec-08 10:01 323 -6.1
2019-Dec-08 09:56 323 -6.1
2019-Dec-08 09:51 323 -6.1
2019-Dec-08 09:46 323 -6.1
2019-Dec-08 09:41 323 -6.1
2019-Dec-08 09:36 323 -5.6
2019-Dec-08 09:31 040 -5.6
2019-Dec-08 09:26 049 -5.6
2019-Dec-08 09:21 049 -5.6
2019-Dec-08 09:16 049 -5.6
2019-Dec-08 09:11 049 -5.6
2019-Dec-08 09:06 049 -5.6
2019-Dec-08 09:01 049 -5.6
2019-Dec-08 08:56 326 -5.6
2019-Dec-08 08:51 326 -5.6
2019-Dec-08 08:46 326 -5.6
2019-Dec-08 08:41 334 -5.6
2019-Dec-08 08:36 334 -5.6
2019-Dec-08 08:31 334 -5.6
2019-Dec-08 08:26 334 -5.6
2019-Dec-08 08:21 004 -5.0
2019-Dec-08 08:16 004 -5.0
2019-Dec-08 08:11 004 -5.0
2019-Dec-08 08:06 004 -5.0
2019-Dec-08 08:01 004 -5.0
2019-Dec-08 07:56 004 -5.0
2019-Dec-08 07:51 004 -5.0
2019-Dec-08 07:46 004 -5.0
2019-Dec-08 07:41 004 -4.4
2019-Dec-08 07:36 004 -5.0
2019-Dec-08 07:31 328 -5.0
2019-Dec-08 07:26 344 -5.0
2019-Dec-08 07:21 345 -4.4
2019-Dec-08 07:16 338 -4.4
2019-Dec-08 07:11 335 -4.4
2019-Dec-08 07:06 330 -4.4
2019-Dec-08 07:01 330 -4.4
2019-Dec-08 06:56 330 -4.4
2019-Dec-08 06:51 037 -4.4
2019-Dec-08 06:46 048 -3.9
2019-Dec-08 06:41 077 -3.9
2019-Dec-08 06:36 325 -3.9
2019-Dec-08 06:31 324 -3.3
2019-Dec-08 06:26 326 -3.9
2019-Dec-08 06:21 326 -3.9
2019-Dec-08 06:16 032 -3.9
2019-Dec-08 06:11 031 -3.9
2019-Dec-08 06:06 032 -3.9
2019-Dec-08 06:01 032 -3.9
2019-Dec-08 05:56 032 -3.3
2019-Dec-08 05:51 032 -3.3
2019-Dec-08 05:46 032 -3.3
2019-Dec-08 05:41 032 -3.3
2019-Dec-08 05:36 032 -3.3
2019-Dec-08 05:31 032 -3.3
2019-Dec-08 05:26 032 -3.9
2019-Dec-08 05:21 352 -3.9
2019-Dec-08 05:16 352 -3.9
2019-Dec-08 05:11 352 -3.9
2019-Dec-08 05:06 352 -3.3
2019-Dec-08 05:01 352 -3.3
2019-Dec-08 04:56 351 -3.3
2019-Dec-08 04:51 323 -3.3
2019-Dec-08 04:46 313 -3.3
2019-Dec-08 04:41 312 -3.3
2019-Dec-08 04:36 312 -3.3
2019-Dec-08 04:31 312 -3.3
2019-Dec-08 04:26 312 -3.3
2019-Dec-08 04:21 312 -3.3
2019-Dec-08 04:16 312 -3.3
2019-Dec-08 04:11 312 -3.3
2019-Dec-08 04:06 312 -3.3
2019-Dec-08 04:01 312 -3.3
2019-Dec-08 03:56 312 -2.8
2019-Dec-08 03:51 312 -2.8
2019-Dec-08 03:46 312 -2.8
2019-Dec-08 03:41 312 -2.2
2019-Dec-08 03:36 312 -2.2
2019-Dec-08 03:31 312 -2.2
2019-Dec-08 03:26 312 -2.2
2019-Dec-08 03:21 312 -1.7
2019-Dec-08 03:16 312 -1.7
2019-Dec-08 03:11 312 -1.7
2019-Dec-08 03:06 312 -1.7
2019-Dec-08 03:01 312 -1.7
2019-Dec-08 02:56 312 -1.1
2019-Dec-08 02:51 312 -1.1
2019-Dec-08 02:46 356 0 gusting 1 -1.1
2019-Dec-08 02:41 328 0 gusting 1 -1.1
2019-Dec-08 02:36 329 0 gusting 1 -1.1
2019-Dec-08 02:31 317 0 gusting 1 -0.6
2019-Dec-08 02:26 326 0 gusting 1 -0.6
2019-Dec-08 02:21 306 0 gusting 2 -0.6
2019-Dec-08 02:16 333 0 gusting 2 -0.6
2019-Dec-08 02:11 319 0 gusting 2 -0.6
2019-Dec-08 02:06 314 0 gusting 2 -0.6
2019-Dec-08 02:01 328 0 gusting 3 -0.6
2019-Dec-08 01:56 347 0 gusting 3 -0.6
2019-Dec-08 01:51 335 0 gusting 2 -0.6
2019-Dec-08 01:46 325 -0.6
2019-Dec-08 01:41 314 -0.6
2019-Dec-08 01:36 303 -0.6
2019-Dec-08 01:31 001 0 gusting 2 -0.6
2019-Dec-08 01:26 309 0 gusting 2 -0.6
2019-Dec-08 01:21 310 0 gusting 2 -0.6
2019-Dec-08 01:16 315 0 gusting 2 -0.6
2019-Dec-08 01:11 316 0 gusting 2 -0.6
2019-Dec-08 01:06 316 0 gusting 2 -0.6
2019-Dec-08 01:01 352 0 gusting 2 -0.6
2019-Dec-08 00:56 330 0 gusting 2 -0.6
2019-Dec-08 00:51 338 0 gusting 2 -0.6
2019-Dec-08 00:46 345 0 gusting 3 -0.6
2019-Dec-08 00:41 308 0 gusting 3 -0.6
2019-Dec-08 00:36 304 -0.6
2019-Dec-08 00:31 301 -0.6
2019-Dec-08 00:26 311 -0.0
2019-Dec-08 00:21 310 -0.0
2019-Dec-08 00:16 310 -0.0
2019-Dec-08 00:11 302 -0.0
2019-Dec-08 00:06 343 -0.0
2019-Dec-08 00:01 348 -0.0
2019-Dec-07 23:56 287 0 gusting 2 0.6
2019-Dec-07 23:51 300 0 gusting 4 0.6
2019-Dec-07 23:46 300 1 gusting 4 0.6
2019-Dec-07 23:41 287 0 gusting 3 0.6
2019-Dec-07 23:36 297 0 gusting 5 0.6
2019-Dec-07 23:31 308 1 gusting 5 0.6
2019-Dec-07 23:26 314 1 gusting 4 0.6
2019-Dec-07 23:21 305 1 gusting 4 0.6
2019-Dec-07 23:16 295 1 gusting 6 0.6
2019-Dec-07 23:11 306 1 gusting 6 0.6
2019-Dec-07 23:06 334 1 gusting 4 0.6
2019-Dec-07 23:01 296 1 gusting 4 0.6
2019-Dec-07 22:56 318 0 gusting 3 0.6
2019-Dec-07 22:51 271 0 gusting 3 0.6
2019-Dec-07 22:46 356 0 gusting 3 0.6
2019-Dec-07 22:40 293 1 gusting 4 1.1
2019-Dec-07 22:35 297 1 gusting 5 1.1
2019-Dec-07 22:30 336 1 gusting 5 1.1
2019-Dec-07 22:25 284 1 gusting 4 1.1
2019-Dec-07 22:20 288 0 gusting 3 1.1
2019-Dec-07 22:15 335 0 gusting 3 1.1
2019-Dec-07 22:10 284 0 gusting 2 1.1
2019-Dec-07 22:06 297 0 gusting 3 1.1
2019-Dec-07 22:00 298 1 gusting 4 1.1
2019-Dec-07 21:55 027 1 gusting 4 1.1
2019-Dec-07 21:50 319 0 gusting 3 1.1
2019-Dec-07 21:45 304 0 gusting 3 1.7
2019-Dec-07 21:40 318 1 gusting 6 1.7
2019-Dec-07 21:35 345 1 gusting 6 1.7
2019-Dec-07 21:30 303 2 gusting 6 1.7
2019-Dec-07 21:25 311 3 gusting 11 1.7
2019-Dec-07 21:20 328 3 gusting 11 1.7
2019-Dec-07 21:15 290 2 gusting 6 1.7
2019-Dec-07 21:10 302 2 gusting 6 2.2
2019-Dec-07 21:05 041 1 gusting 6 2.2
2019-Dec-07 21:00 325 2 gusting 6 2.2
2019-Dec-07 20:55 335 2 gusting 6 2.2
2019-Dec-07 20:50 300 3 gusting 9 2.2
2019-Dec-07 20:45 268 3 gusting 9 2.8
2019-Dec-07 20:40 313 3 gusting 9 2.8
2019-Dec-07 20:35 307 3 gusting 9 2.8
2019-Dec-07 20:30 310 4 gusting 9 2.8
2019-Dec-07 20:25 297 5 gusting 9 2.8
2019-Dec-07 20:20 304 4 gusting 9 2.8
2019-Dec-07 20:15 300 2 gusting 8 2.8
2019-Dec-07 20:10 282 4 gusting 9 2.8
2019-Dec-07 20:05 296 4 gusting 10 2.2
2019-Dec-07 20:00 319 4 gusting 10 2.8
2019-Dec-07 19:55 300 5 gusting 9 2.8
2019-Dec-07 19:50 287 6 gusting 12 2.8
2019-Dec-07 19:45 303 6 gusting 13 2.8
2019-Dec-07 19:40 283 5 gusting 13 2.8
2019-Dec-07 19:35 302 4 gusting 9 3.3
2019-Dec-07 19:30 023 5 gusting 11 3.3
2019-Dec-07 19:25 356 5 gusting 12 3.3
2019-Dec-07 19:20 296 5 gusting 12 3.3
2019-Dec-07 19:15 262 4 gusting 12 3.3
2019-Dec-07 19:10 058 3 gusting 7 3.9
2019-Dec-07 19:05 308 3 gusting 8 3.9
2019-Dec-07 19:00 352 3 gusting 8 3.3
2019-Dec-07 18:55 316 4 gusting 10 3.3
2019-Dec-07 18:50 282 4 gusting 12 3.3
2019-Dec-07 18:45 280 4 gusting 12 3.3
2019-Dec-07 18:40 008 5 gusting 12 3.3
2019-Dec-07 18:35 350 5 gusting 10 3.3
2019-Dec-07 18:30 318 4 gusting 10 3.3
2019-Dec-07 18:25 013 4 gusting 11 3.3
2019-Dec-07 18:20 295 4 gusting 11 3.3
2019-Dec-07 18:15 031 5 gusting 10 3.3
2019-Dec-07 18:10 299 5 gusting 13 3.3
2019-Dec-07 18:05 302 4 gusting 13 3.3
2019-Dec-07 18:00 329 3 gusting 9 3.3
2019-Dec-07 17:55 290 3 gusting 8 3.3
2019-Dec-07 17:50 305 3 gusting 6 3.3
2019-Dec-07 17:45 295 3 gusting 7 3.3
2019-Dec-07 17:40 032 2 gusting 7 3.3
2019-Dec-07 17:35 310 2 gusting 6 2.8
2019-Dec-07 17:30 011 2 gusting 6 2.8
2019-Dec-07 17:25 006 3 gusting 6 2.8
2019-Dec-07 17:20 303 3 gusting 7 2.8
2019-Dec-07 17:15 349 5 gusting 13 2.8
2019-Dec-07 17:10 039 5 gusting 13 2.8
2019-Dec-07 17:05 037 4 gusting 10 2.8
2019-Dec-07 17:00 041 4 gusting 10 2.8
2019-Dec-07 16:55 358 3 gusting 7 2.8
2019-Dec-07 16:50 032 4 gusting 10 2.8
2019-Dec-07 16:45 313 4 gusting 10 2.8
2019-Dec-07 16:40 037 5 gusting 13 2.8
2019-Dec-07 16:35 330 5 gusting 13 2.8
2019-Dec-07 16:30 047 5 gusting 13 2.8
2019-Dec-07 16:25 315 5 gusting 13 2.8
2019-Dec-07 16:20 300 4 gusting 8 2.8
2019-Dec-07 16:15 344 4 gusting 8 2.8
2019-Dec-07 16:10 304 5 gusting 13 2.2
2019-Dec-07 16:05 051 5 gusting 13 2.2
2019-Dec-07 16:00 039 3 gusting 11 2.8
2019-Dec-07 15:55 032 3 gusting 8 2.2
2019-Dec-07 15:50 340 3 gusting 8 2.2
2019-Dec-07 15:45 014 3 gusting 12 2.8
2019-Dec-07 15:40 040 4 gusting 12 2.2
2019-Dec-07 15:35 293 3 gusting 10 2.2
2019-Dec-07 15:30 040 3 gusting 7 2.8
2019-Dec-07 15:25 036 3 gusting 9 2.2
2019-Dec-07 15:20 276 4 gusting 10 2.2
2019-Dec-07 15:15 043 3 gusting 10 2.2
2019-Dec-07 15:10 358 2 gusting 8 2.2
2019-Dec-07 15:05 032 3 gusting 8 2.2
2019-Dec-07 15:00 316 3 gusting 8 1.7
2019-Dec-07 14:55 022 3 gusting 8 2.2
2019-Dec-07 14:50 290 3 gusting 8 1.7
2019-Dec-07 14:45 302 3 gusting 12 1.7
2019-Dec-07 14:40 295 4 gusting 12 1.7
2019-Dec-07 14:35 312 3 gusting 9 1.7
2019-Dec-07 14:30 313 3 gusting 9 1.7
2019-Dec-07 14:25 026 3 gusting 8 1.7
2019-Dec-07 14:20 006 4 gusting 9 1.7
2019-Dec-07 14:15 309 3 gusting 9 1.7
2019-Dec-07 14:10 330 2 gusting 7 1.7
2019-Dec-07 14:05 037 2 gusting 7 1.1
2019-Dec-07 14:00 284 2 gusting 6 1.7
2019-Dec-07 13:55 309 3 gusting 6 1.1
2019-Dec-07 13:50 300 2 gusting 6 1.1
2019-Dec-07 13:45 299 2 gusting 6 1.1
2019-Dec-07 13:40 304 1 gusting 6 1.1
2019-Dec-07 13:35 307 2 gusting 6 1.1
2019-Dec-07 13:30 314 2 gusting 6 0.6
2019-Dec-07 13:25 295 2 gusting 6 0.6
2019-Dec-07 13:20 296 1 gusting 6 0.6
2019-Dec-07 13:15 340 1 gusting 6 0.6
2019-Dec-07 13:10 302 1 gusting 6 0.6
2019-Dec-07 13:05 297 2 gusting 6 0.6
2019-Dec-07 13:00 311 1 gusting 6 0.6